Other Public Products
Issued by NWS Grand Forks, ND

Home | Current Version | Previous Version | Graphics & Text | Print | Product List | Glossary On
Versions: 1 2 3 4 5 6 7 8 9 10 11 12 13 14 15 16 17 18 19 20 21 22 23 24 25 26 27 28 29 30 31 32 33 34 35 36 37 38 39 40 41 42 43 44 45 46 47 48 49 50
000
FPUS83 KFGF 190110
OPUFGF
PRAIRIE TO PINES WEATHER ROUNDUP
NATIONAL WEATHER SERVICE EASTERN NORTH DAKOTA/GRAND FORKS ND
700 PM CST SAT FEB 18 2017

 **SATELLITE DATA USED TO AUGMENT SKY COVER AT AUTOMATED STATIONS**
 *****  WEATHER ACROSS EASTERN NORTH DAKOTA  *****

CITY           SKY/WX    TMP DP  RH WIND       PRES   REMARKS
GRAND FORKS    MOCLDY    37  30  75 E3        29.77R
GRAND FORKS AF FAIR      34  31  90 NW3       29.78R
GRAND CITY NWS NOT AVBL
BUXTON         NOT AVBL
DEVILS LAKE    CLOUDY    34  32  92 W3        29.79R
FARGO          FAIR      37  35  92 CALM      29.78R
WAHPETON ARPT    N/A     41  36  81 SE6       29.79R
$$

 *****  WEATHER ACROSS CENTRAL AND WESTERN NORTH DAKOTA  *****

CITY           SKY/WX    TMP DP  RH WIND       PRES   REMARKS
JAMESTOWN      MOCLDY    36  34  92 NE3       29.75R
BISMARCK       CLOUDY    37  33  85 E8        29.69S
MINOT          CLOUDY    35  32  88 N7        29.73S
MINOT AFB      CLOUDY    34  31  91 SE5       29.74R
GARRISON         N/A     36  31  82 CALM      29.70R
WILLISTON      FAIR      37  32  82 E8        29.67F
DICKINSON      FAIR      34  30  85 NE9       29.61R
HETTINGER      FAIR      41  32  70 MISG      29.60R
$$

 *****  OTHER OBSERVATIONS NORTHEAST NORTH DAKOTA  *****

CITY           SKY/WX    TMP DP  RH WIND       PRES   REMARKS
WALHALLA       NOT AVBL
LANGDON        NOT AVBL
CAVALIER       FAIR      34  30  86 W6        29.78R
GRAFTON        FAIR      36  34  93 NW6       29.79R
CANDO          NOT AVBL
FORT TOTTEN      N/A     36  33  88 CALM      29.95S
ROLLA          CLOUDY    34  30  86 N9        29.76S
RUGBY            N/A     32  32 100 SE6       29.77R
 ***** THE ABOVE OBSERVATIONS ARE NON NWS ARE NOT QUALITY
        CONTROLLED AND MAY MIS-REPORT RAIN FOR SNOW...
$$

 *****  OTHER OBSERVATIONS SOUTHEAST NORTH DAKOTA *****

CITY           SKY/WX    TMP DP  RH WIND       PRES   REMARKS
COOPERSTOWN    FAIR      34  34 100 S8        29.79R
VALLEY CITY    MOCLDY    37  37 100 N6        29.79R
OAKES          NOT AVBL
GWINNER        FAIR      37  37 100 E7        29.75F
SHEYENNE NWR     N/A     38  36  92 E3        29.95S
BUFFALO        NOT AVBL
WYNDMERE       NOT AVBL
 ***** THE ABOVE OBSERVATIONS ARE NON NWS ARE NOT QUALITY
       CONTROLLED AND MAY MIS-REPORT RAIN FOR SNOW...
$$

  *****  WEATHER ACROSS NORTHERN MINNESOTA  *****

CITY           SKY/WX    TMP DP  RH WIND       PRES   REMARKS
FLAG ISLAND    FAIR      37  28  70 W7        29.73R
WARROAD        FAIR      36  32  87 W6        29.76R
ROSEAU         FAIR      37  32  81 W6        29.76R
HALLOCK        FAIR      32  30  93 CALM      29.77S
THF RVR FALLS  FAIR      36  32  85 SW3       29.78S
HALSTAD          N/A     37  34  89 CALM        N/A
FOSSTON        FAIR      34  32  93 S5        29.79R
BAUDETTE       FAIR      37  30  75 W6        29.74R
WASKISH        FAIR      36  32  87 SW9       29.76R
CROOKSTON      FAIR      36  34  93 CALM      29.79R
$$
  *****  WEATHER ACROSS CENTRAL AND WEST MINNESOTA  *****

CITY           SKY/WX    TMP DP  RH WIND       PRES   REMARKS
BEMIDJI        FAIR      38  33  81 SW6       29.77S
PARK RAPIDS    CLOUDY    40  30  67 SW5       29.78R
WADENA         FAIR      39  36  87 CALM      29.80R
DETROIT LAKES  FAIR      41  36  81 E3        29.79F
MOORHEAD       FAIR      39  36  87 CALM      29.79S
FERGUS FALLS   FAIR      41  37  87 SE6       29.83R
ELBOW LAKE     FAIR      41  39  92 E5        29.79F
MORRIS MN      FAIR      41  37  87 SE6       29.80R
STAPLES        FAIR      39  34  81 CALM      29.80S
WHEATON        FAIR      39  37  93 SE7       29.81S
$$
  *****  WEATHER ELSEWHERE ACROSS MINNESOTA  *****

CITY           SKY/WX    TMP DP  RH WIND       PRES   REMARKS
DULUTH         MOCLDY    42  30  62 W13       29.73R
INTRNTL FALLS  FAIR      40  31  70 W8        29.72R
ELY            FAIR      43  30  61 W8        29.70R
CLOQUET        FAIR      46  27  46 W9        29.76R
BRAINERD       CLOUDY    45  34  65 W5        29.79S
HIBBING        FAIR      43  29  57 W5        29.74R
ALEXANDRIA     FAIR      42  38  85 CALM      29.82R
SAINT CLOUD    FAIR      44  39  82 CALM      29.81R
MINNEAPOLIS    CLOUDY    52  36  54 W6        29.81R
$$

  *****  WEATHER ACROSS SOUTH DAKOTA  *****

CITY           SKY/WX    TMP DP  RH WIND       PRES   REMARKS
SIOUX FALLS    FAIR      44  40  85 CALM      29.79R
BROOKINGS      FAIR      49  37  63 S7        29.79R
WATERTOWN      FAIR      43  39  86 SE6       29.77R
HURON          FAIR      47  39  74 SE10      29.73F
SISSETON         N/A     42  38  85 SW7       29.77S
ABERDEEN       FAIR      40  36  86 SE10      29.71F
MITCHELL       FAIR      47  38  71 SE10      29.76S
PIERRE         FAIR      50  34  54 SE15      29.64S
MOBRIDGE       FAIR      42  32  67 SE10      29.63R
RAPID CITY     FAIR      52  31  44 SE8       29.59R
$$

  *****  SOME WEATHER IN NEARBY STATES *****

CITY           SKY/WX    TMP DP  RH WIND       PRES   REMARKS
GLASGOW MT     FAIR      36  31  82 E16       29.58S
GREAT FALLS MT FAIR      52  30  43 S12       29.39S
CHEYENNE WY    FAIR      50  20  30 CALM      29.70R
SCOTTSBLUFF NE FAIR      50  27  40 E8        29.63F
OMAHA NE       MOCLDY    54  32  43 E6        29.80R
DES MOINES IA  FAIR      56  33  42 NE3       29.82R
DAVENPORT IA   FAIR      45  34  65 NW3       29.80R
CHICAGO IL     FAIR      54  36  50 VRB5      29.77R
EAU CLAIRE WI  FAIR      44  35  70 CALM      29.80R
LA CROSSE WI   FAIR      41  30  65 CALM      29.81R
$$

  *****  SOME NATIONAL WEATHER *****

CITY           SKY/WX    TMP DP  RH WIND       PRES   REMARKS
LA GUARDIA NY  FAIR      62  32  32 SW13      29.66S
RALEIGH NC     CLOUDY    65  30  27 W8        29.87F
ATLANTA GA     CLOUDY    59  49  69 CALM      29.96R
NEW ORLEANS LA FAIR      64  59  83 E3        29.93R
OKLAHOMA CITY  MOCLDY    55  48  77 SE7       29.79S
ALBUQUERQUE NM MOCLDY    53  31  42 S8        29.77R
SALT LAKE CITY CLOUDY    52  36  54 SW5       29.58S
LOS ANGELES CA MOCLDY    57  52  83 W15       29.59S
BOISE ID       CLOUDY    49  40  71 SE18      29.42F
SEATTLE WA     CLOUDY    44  43  96 S9        29.41F
$$

*** WEATHER ACROSS MANITOBA...SASKATCHEWAN AND ONTARIO ***
                ***ONTARIO***

CITY           SKY/WX    TMP DP  RH WIND       PRES   REMARKS
GERALDTON      CLOUDY    39  32  75 W12       29.52R
THUNDER BAY    PTCLDY    45  30  57 W9        29.61R
SIOUX LOOKOUT  MOCLDY    37  28  70 NW15G25   29.66R
TORONTO        CLEAR     45  36  70 W12       29.63R
BIG TROUT LK   FLURRIES  25  25 100 N9        29.57R WCI  15
PICKLE LAKE    CLOUDY    36  28  75 NW10G21   29.55R
DRYDEN         CLOUDY    39  30  70 NW12G20   29.68R
KENORA         PTCLDY    37  28  70 NW5       29.72R
$$
                *** MANITOBA***

CITY           SKY/WX    TMP DP  RH WIND       PRES   REMARKS
BRANDON        MOCLDY    32  30  93 NW5       29.75S
DAUPHIN        CLEAR     34  28  80 W7        29.75R
ISLAND LAKE    FLURRIES  23  19  86 NW10      29.71R WCI  12
PILOT MOUND      N/A     32  30  93 CALM        N/A
THE PAS        CLOUDY    34  25  69 NE3       29.75S
THOMPSON       CLOUDY    18  14  86 NW5       29.75R WCI  11
WINNIPEG       MOCLDY    32  30  93 W8        29.78R WCI  25
LYNN LAKE      CLOUDY    21  19  93 W8        29.73R WCI  12
CHURCHILL      FLURRIES   7   3  85 E14       29.84R WCI -10
GILLAM         FLURRIES  16  12  86 N9        29.73R WCI   4
$$
                ***SASKATCHEWAN***

CITY           SKY/WX    TMP DP  RH WIND       PRES   REMARKS
ESTEVAN        MOCLDY    32  32 100 E8        29.72F WCI  25
KINDERSLEY     CLOUDY    36  32  87 E18       29.57F
LLOYDMINSTER   FOG       30  30 100 E12       29.62F VSB 3/8 WCI  21
PRINCE ALBERT  MOCLDY    28  25  86 VRB2      29.74R
REGINA         MOCLDY    34  30  86 E8        29.71F
YORKTON        CLEAR     36  30  80 W5        29.73F



USA.gov is the U.S. government's official web portal to all federal, state and local government web resources and services.